Regional Weather Roundup
Issued by NWS

Home | Current Version | Previous Version | Graphics & Text | Print | Product List | Glossary On
Versions: 1 2 3 4 5 6 7 8 9 10 11 12 13 14 15 16 17 18 19 20 21 22 23 24 25 26 27 28 29 30 31 32 33 34 35 36 37 38 39 40 41 42 43 44 45 46 47 48 49 50
000
ASUS43 KTOP 160059
RWRKS

WEATHER ROUNDUP FOR KANSAS
NATIONAL WEATHER SERVICE GOODLAND KS
700 PM CST SUN JAN 15 2017

NOTE:  "FAIR" INDICATES FEW OR NO CLOUDS BELOW 12,000 FEET WITH NO
SIGNIFICANT WEATHER AND/OR OBSTRUCTIONS TO VISIBILITY.

KSZ001>006-013>018-027>032-041>047-160200-
NORTHWEST KANSAS

CITY           SKY/WX    TMP DP  RH WIND       PRES   REMARKS
GOODLAND       CLOUDY    30  29  96 E5        29.98S
HAYS           FLURRIES  31  30  96 E8        30.07S
HILL CITY      MIX PCPN  30  30 100 E7        30.07S FOG
RUSSELL        FRZ RAIN  30  29  96 NE7       30.06S FOG
$$

KSZ061>065-074>080-084>089-160200-
SOUTHWEST KANSAS

CITY           SKY/WX    TMP DP  RH WIND       PRES   REMARKS
DODGE CITY     FRZ RAIN  31  30  96 NE7       30.03R FOG
ELKHART          N/A     30  24  78 N8          N/A
GARDEN CITY    CLOUDY    30  29  96 E7        30.02R FOG
GREAT BEND     CLOUDY    31  29  92 NE10      30.04F WCI  22
LIBERAL        CLOUDY    34  28  80 CALM      29.95F
$$

KSZ066>073-081>083-090>101-160200-
SOUTHEAST KANSAS

CITY           SKY/WX    TMP DP  RH WIND       PRES   REMARKS
CHANUTE        LGT RAIN  37  36  96 E8        30.09F VSB 1
HUTCHINSON     CLOUDY    33  32  96 VRB5      30.06F
MEDICINE LODGE   N/A     32  31  96 NE10      30.00F WCI  24
NEWTON         MIX PCPN N/A N/A N/A NE7       30.07S
PARSONS        CLOUDY    38  37  97 E9        30.08F FOG
WICHITA INTL   CLOUDY    34  33  96 NE10      30.05F WCI  26
WICHITA JABRA  CLOUDY    33  32  96 NE10      30.05F WCI  25
WINFIELD       CLOUDY    36  36 100 E8        30.04F
$$

KSZ007>012-019>026-033>040-048>060-102>105-160200-
NORTHEAST KANSAS

CITY           SKY/WX    TMP DP  RH WIND       PRES   REMARKS
CONCORDIA      MIX PCPN  31  31 100 E8        30.11S
EMPORIA        MIX PCPN  32  32 100 E10       30.10R FOG     WCI  24
LAWRENCE       CLOUDY    32  32 100 NE8       30.16F
MANHATTAN      LGT RAIN  33  31  92 E12       30.12F WCI  24
OLATHE IND     LGT RAIN  33  32  96 E10       30.15F FOG     WCI  25
OLATHE EXE     MIX PCPN  32  32 100 E9        30.15F FOG
SALINA         CLOUDY    32  30  92 N7        30.11S FOG
TOPEKA BILLARD LGT RAIN  33  30  88 E7        30.16S
TOPEKA FORBES  LGT RAIN  33  31  92 VRB7      30.12F
$$




USA.gov is the U.S. government's official web portal to all federal, state and local government web resources and services.